Regional Weather Roundup
Issued by NWS Albany, NY

Home | Current Version | Previous Version | Text Only | Print | Product List | Glossary On
Versions: 1 2 3 4 5 6 7 8 9 10 11 12 13 14 15 16 17 18 19 20 21 22 23 24 25 26 27 28 29 30 31 32 33 34 35 36 37 38 39 40 41 42 43 44 45 46 47 48 49 50
000
ASUS41 KALY 311510
RWRALY

NEW YORK STATE HOURLY WEATHER ROUNDUP
NATIONAL WEATHER SERVICE ALBANY NY
1000 AM EST SAT JAN 31 2015

NOTE: "FAIR" INDICATES FEW OR NO CLOUDS BELOW 12,000 FEET WITH NO
SIGNIFICANT WEATHER AND/OR NO OBSTRUCTIONS TO VISIBILITY.

NYZ032-033-038>043-046>054-057>066-NYZ062>081-311600-
EAST


CITY           SKY/WX    TMP DP  RH WIND       PRES   REMARKS
ALBANY         SUNNY      4 -12  48 NW16      30.20R WCI -15
GLENS FALLS    SUNNY      4 -13  45 N10       30.18S WCI -11
POUGHKEEPSIE   SUNNY     12 -10  36 N12       30.14R WCI  -2
NEWBURGH       SUNNY     12  -4  48 NW12G17   30.12R WCI  -2
MONTGOMERY     SUNNY     13  -5  44 NW28G37   30.11R WCI  -8
WHITE PLAINS   SUNNY     14  -5  42 NW16      30.06R WCI  -2
ISLIP          SUNNY     16  -3  43 NW22G37   30.03R WCI  -2
NEW YORK CITY  SUNNY     16   1  51 NW20G29   30.14R WCI  -1
CENTRAL PARK   SUNNY     15  -4  42 NW13G29   30.14R WCI   1
$$

NYZ005>009-017-018-044>046-055-056-311600-
CENTRAL


CITY           SKY/WX    TMP DP  RH WIND       PRES   REMARKS
FULTON         LGT SNOW   2  -4  76 CALM      30.32S
SYRACUSE       PTSUNNY    0  -6  78 W3        30.32S
ROME           SUNNY     -3 -12  65 NW6       30.33R WCI -15
ELMIRA         SUNNY     13   2  61 NW9       30.27S WCI   1
BINGHAMTON     SUNNY      6  -2  69 N12       30.16R WCI  -9
MONTICELLO     SUNNY      7  -2  66 NW22G30   30.08R WCI -14
$$

NYZ026>034-041>043-311600-
NORTH


CITY           SKY/WX    TMP DP  RH WIND       PRES   REMARKS
WATERTOWN        N/A    N/A N/A N/A MISG      30.35R
FORT DRUM      NOT AVBL
MASSENA        SUNNY     -6 -16  61 W10       30.33R WCI -24
SARANAC LAKE   SUNNY     -9 -16  71 SW6       30.07R WCI -22
PLATTSBURGH    SUNNY      2 -15  45 CALM      30.21S
$$

NYZ001>004-010>016-019>021-311600-
WEST


CITY           SKY/WX    TMP DP  RH WIND       PRES   REMARKS
NIAGARA FALLS  FLURRIES  14   8  77 SW7       30.30F WCI   4
BUFFALO        CLOUDY    13   8  81 S6        30.30F WCI   4
DUNKIRK        CLOUDY    16   6  65 SW10      30.32F WCI   4
JAMESTOWN      CLOUDY    10   3  72 S5        30.22F WCI   2
WELLSVILLE     CLOUDY    11   4  73 W15       30.18S WCI  -5
ROCHESTER      LGT SNOW  12   6  77 W5        30.32S WCI   4
PENN YAN       CLOUDY    11   2  67 W6        30.28R WCI   1
$$

             KEY
       WCI = WIND CHILL INDEX
       VSB = VISIBILITY
       HX  = HEAT INDEX
$$


USA.gov is the U.S. government's official web portal to all federal, state and local government web resources and services.